Wildwood, NJ

6:28 PM EDT on May 21, 2018 (GMT -0400)
Cape May County

Weather History for KWWD - August, 2014

Change the Weather History Date:

Thursday, August 14, 2014

  Actual Average Record
Temperature  
Mean Temperature 72 °F -  
Max Temperature 78 °F 80 °F 96 °F (2016)
Min Temperature 66 °F 66 °F 59 °F (1996)
Cooling Degree Days 7    
Growing Degree Days 22 (Base 50)    
Moisture  
Dew Point 53 °F    
Average Humidity 52    
Maximum Humidity 69    
Minimum Humidity 39    
Precipitation  
Precipitation 0.00 in - - ()
Sea Level Pressure  
Sea Level Pressure 29.91 in    
Wind  
Wind Speed 10 mph (West)    
Max Wind Speed 15 mph    
Max Gust Speed 26 mph    
Visibility 10 miles    
Events      
Averages and records for this station are not official NWS values.
T = Trace of Precipitation, MM = Missing Value Source: NWS Daily Summary

Daily Weather History Graph

Daily Weather History Graph

Search for Another Location

Airport or City:

Astronomy

Aug. 14, 2014 Rise Set
Actual Time 6:12 AM EDT 7:55 PM EDT
Civil Twilight 5:43 AM EDT 8:24 PM EDT
Nautical Twilight 5:08 AM EDT 8:58 PM EDT
Astronomical Twilight 4:31 AM EDT 9:35 PM EDT
Moon 10:20 PM EDT (8/14) 10:43 AM EDT (8/14)
Length of Visible Light 14h 40m
Length of Day
13h 43m
Waning Gibbous, 79% of the Moon is Illuminated
Aug 14
Waning Gibbous
Aug 17
Last Quarter
Aug 25
New
Sep 2
First Quarter
Sep 8
Full

Hourly Weather History & Observations

Time (EDT) Temp. Dew Point Humidity Pressure Visibility Wind Dir Wind Speed Gust Speed Precip Events Conditions
12:15 AM 73.4 °F 57.2 °F 57% 29.85 in 10.0 mi NW 10.4 mph 19.6 mph N/A   Clear
12:35 AM 73.4 °F 57.2 °F 57% 29.86 in 10.0 mi WNW 11.5 mph 18.4 mph N/A   Clear
12:55 AM 71.6 °F 57.2 °F 60% 29.86 in 10.0 mi WNW 10.4 mph 17.3 mph N/A   Clear
1:15 AM 73.4 °F 55.4 °F 53% 29.86 in 10.0 mi NW 11.5 mph 18.4 mph N/A   Clear
1:35 AM 71.6 °F 51.8 °F 50% 29.86 in 10.0 mi NW 12.7 mph 26.5 mph N/A   Clear
1:55 AM 71.6 °F 51.8 °F 50% 29.86 in 10.0 mi NW 10.4 mph 19.6 mph N/A   Clear
2:15 AM 71.6 °F 50.0 °F 46% 29.86 in 10.0 mi NW 12.7 mph 19.6 mph N/A   Clear
2:35 AM 71.6 °F 50.0 °F 46% 29.87 in 10.0 mi NW 10.4 mph 20.7 mph N/A   Clear
2:55 AM 69.8 °F 51.8 °F 53% 29.87 in 10.0 mi NW 10.4 mph 20.7 mph N/A   Clear
3:15 AM 69.8 °F 51.8 °F 53% 29.87 in 10.0 mi NW 9.2 mph 18.4 mph N/A   Clear
3:55 AM 69.8 °F 50.0 °F 49% 29.87 in 10.0 mi NW 9.2 mph 18.4 mph N/A   Clear
4:15 AM 68.0 °F 51.8 °F 56% 29.87 in 10.0 mi NW 10.4 mph 20.7 mph N/A   Clear
4:35 AM 69.8 °F 48.2 °F 46% 29.87 in 10.0 mi NW 13.8 mph 20.7 mph N/A   Clear
4:55 AM 69.8 °F 48.2 °F 46% 29.88 in 10.0 mi NW 11.5 mph 21.9 mph N/A   Clear
5:15 AM 68.0 °F 48.2 °F 49% 29.88 in 10.0 mi NW 9.2 mph 16.1 mph N/A   Clear
5:35 AM 68.0 °F 50.0 °F 52% 29.89 in 10.0 mi NW 9.2 mph - N/A   Clear
5:55 AM 68.0 °F 48.2 °F 49% 29.90 in 10.0 mi NW 10.4 mph 16.1 mph N/A   Clear
6:15 AM 66.2 °F 50.0 °F 56% 29.90 in 10.0 mi NNW 8.1 mph - N/A   Clear
6:35 AM 66.2 °F 51.8 °F 60% 29.91 in 10.0 mi NW 6.9 mph - N/A   Clear
6:55 AM 66.2 °F 48.2 °F 52% 29.91 in 10.0 mi NNW 9.2 mph - N/A   Clear
7:15 AM 66.2 °F 48.2 °F 52% 29.92 in 10.0 mi NW 6.9 mph 16.1 mph N/A   Clear
7:35 AM 68.0 °F 48.2 °F 49% 29.93 in 10.0 mi NW 10.4 mph 18.4 mph N/A   Clear
7:55 AM 68.0 °F 48.2 °F 49% 29.94 in 10.0 mi NW 10.4 mph - N/A   Clear
8:15 AM 68.0 °F 50.0 °F 52% 29.94 in 10.0 mi NNW 10.4 mph - N/A   Clear
8:35 AM 68.0 °F 51.8 °F 56% 29.94 in 10.0 mi NW 8.1 mph 16.1 mph N/A   Clear
8:55 AM 68.0 °F 51.8 °F 56% 29.94 in 10.0 mi NNW 9.2 mph - N/A   Clear
9:15 AM 69.8 °F 51.8 °F 53% 29.94 in 10.0 mi NNW 6.9 mph 16.1 mph N/A   Clear
9:35 AM 69.8 °F 51.8 °F 53% 29.95 in 10.0 mi NNW 9.2 mph - N/A   Clear
9:55 AM 69.8 °F 51.8 °F 53% 29.95 in 10.0 mi NW 9.2 mph - N/A   Clear
10:15 AM 69.8 °F 51.8 °F 53% 29.96 in 10.0 mi WNW 10.4 mph - N/A   Clear
10:35 AM 71.6 °F 53.6 °F 53% 29.96 in 10.0 mi WNW 9.2 mph - N/A   Clear
10:55 AM 71.6 °F 51.8 °F 50% 29.96 in 10.0 mi West 10.4 mph - N/A   Clear
11:15 AM 71.6 °F 53.6 °F 53% 29.97 in 10.0 mi West 8.1 mph - N/A   Clear
11:35 AM 71.6 °F 51.8 °F 50% 29.96 in 10.0 mi West 10.4 mph - N/A   Clear
11:55 AM 73.4 °F 53.6 °F 50% 29.96 in 10.0 mi NW 8.1 mph - N/A   Clear
12:15 PM 71.6 °F 48.2 °F 43% 29.96 in 10.0 mi West 5.8 mph - N/A   Clear
12:35 PM 73.4 °F 51.8 °F 47% 29.95 in 10.0 mi SW 8.1 mph - N/A   Clear
12:55 PM 73.4 °F 51.8 °F 47% 29.94 in 10.0 mi West 9.2 mph - N/A   Clear
1:15 PM 73.4 °F 50.0 °F 44% 29.94 in 10.0 mi West 9.2 mph - N/A   Clear
1:35 PM 75.2 °F 51.8 °F 44% 29.93 in 10.0 mi WSW 8.1 mph - N/A   Scattered Clouds
1:55 PM 75.2 °F 50.0 °F 41% 29.93 in 10.0 mi WSW 6.9 mph - N/A   Partly Cloudy
2:15 PM 75.2 °F 50.0 °F 41% 29.93 in 10.0 mi West 8.1 mph - N/A   Partly Cloudy
2:35 PM 75.2 °F 51.8 °F 44% 29.92 in 10.0 mi WSW 9.2 mph - N/A   Partly Cloudy
2:55 PM 75.2 °F 51.8 °F 44% 29.91 in 10.0 mi WSW 9.2 mph - N/A   Clear
3:15 PM 77.0 °F 51.8 °F 41% 29.91 in 10.0 mi WSW 9.2 mph - N/A   Partly Cloudy
3:35 PM 77.0 °F 51.8 °F 41% 29.91 in 10.0 mi WSW 6.9 mph - N/A   Scattered Clouds
3:55 PM 77.0 °F 51.8 °F 41% 29.91 in 10.0 mi West 9.2 mph - N/A   Partly Cloudy
4:15 PM 78.8 °F 51.8 °F 39% 29.90 in 10.0 mi South 10.4 mph - N/A   Clear
4:35 PM 77.0 °F 53.6 °F 44% 29.90 in 10.0 mi South 11.5 mph - N/A   Clear
4:55 PM 75.2 °F 53.6 °F 47% 29.90 in 10.0 mi South 10.4 mph - N/A   Clear
5:15 PM 75.2 °F 53.6 °F 47% 29.90 in 10.0 mi SSE 12.7 mph - N/A   Clear
5:35 PM 75.2 °F 55.4 °F 50% 29.89 in 10.0 mi SSE 12.7 mph - N/A   Clear
5:55 PM 75.2 °F 57.2 °F 53% 29.89 in 10.0 mi SSE 11.5 mph - N/A   Clear
6:15 PM 73.4 °F 57.2 °F 57% 29.88 in 10.0 mi SSE 10.4 mph - N/A   Scattered Clouds
6:35 PM 73.4 °F 57.2 °F 57% 29.88 in 10.0 mi SE 8.1 mph - N/A   Mostly Cloudy
6:55 PM 73.4 °F 59.0 °F 61% 29.88 in 10.0 mi SE 6.9 mph - N/A   Mostly Cloudy
7:15 PM 75.2 °F 57.2 °F 53% 29.88 in 10.0 mi SSW 5.8 mph - N/A   Overcast
7:35 PM 73.4 °F 55.4 °F 53% 29.88 in 10.0 mi SSW 6.9 mph - N/A   Overcast
7:55 PM 73.4 °F 55.4 °F 53% 29.88 in 10.0 mi South 6.9 mph - N/A   Mostly Cloudy
8:15 PM 71.6 °F 55.4 °F 57% 29.88 in 10.0 mi South 6.9 mph - N/A   Partly Cloudy
8:35 PM 71.6 °F 57.2 °F 60% 29.88 in 10.0 mi South 6.9 mph - N/A   Clear
8:55 PM 71.6 °F 57.2 °F 60% 29.89 in 10.0 mi South 5.8 mph - N/A   Clear
9:15 PM 71.6 °F 55.4 °F 57% 29.90 in 10.0 mi SSW 4.6 mph - N/A   Clear
9:35 PM 71.6 °F 55.4 °F 57% 29.90 in 10.0 mi SSW 4.6 mph - N/A   Clear
9:55 PM 69.8 °F 55.4 °F 60% 29.90 in 10.0 mi SSW 6.9 mph - N/A   Clear
10:15 PM 69.8 °F 55.4 °F 60% 29.90 in 10.0 mi SSW 8.1 mph - N/A   Clear
10:35 PM 69.8 °F 57.2 °F 64% 29.90 in 10.0 mi SSW 8.1 mph - N/A   Clear
10:55 PM 71.6 °F 57.2 °F 60% 29.91 in 10.0 mi SSW 9.2 mph - N/A   Clear
11:15 PM 71.6 °F 59.0 °F 64% 29.91 in 10.0 mi SSW 15.0 mph 19.6 mph N/A   Scattered Clouds
11:35 PM 71.6 °F 59.0 °F 64% 29.91 in 10.0 mi SW 11.5 mph - N/A   Mostly Cloudy
11:55 PM 71.6 °F 60.8 °F 69% 29.92 in 10.0 mi SW 13.8 mph 19.6 mph N/A   Scattered Clouds